CAPE
0 0 0 0 0 0 0 0 0 0 0 0 0 0 0 14 49 9 28 304 763 1019 1231 1432 1333 1154 1261 1431 1474 1539 1715 1668 1601 1618 1675 1692 1634 1565 1526 1521 1398 1373 1028 837 626 511 300 37 0
0 0 0 0 0 0 0 0 0 0 3 1 16 13 56 59 249 215 292 615 824 1045 1171 1314 1221 1069 1206 1459 1552 1601 1626 1699 1772 1627 1489 1339 1399 1448 1326 1250 1396 1352 1032 945 763 622 285 14 13
0 0 0 0 0 0 0 0 0 3 66 73 110 81 62 87 273 189 275 693 974 1055 1139 1169 1105 953 1089 1463 1652 1580 1689 1744 1798 1730 1437 1306 1296 1347 1248 1339 1365 1311 1017 920 759 433 60 5 35
0 0 0 0 0 0 0 0 0 24 41 254 265 197 156 140 241 179 462 841 950 1032 1052 924 909 864 1017 1512 1727 1694 1562 1570 1571 1602 1640 1358 1239 1272 1297 1379 1355 1188 680 549 323 101 13 11 22
0 0 0 0 0 0 0 0 0 0 0 501 680 828 304 195 164 278 474 667 836 859 842 731 747 800 1000 1547 1723 1552 1390 1350 1381 1478 1590 1565 1347 1263 1354 1356 1416 1237 834 419 234 103 38 30 50
0 0 0 0 0 0 0 0 0 0 411 805 801 691 289 159 203 146 251 404 699 763 706 638 704 758 889 1349 1395 1274 1142 1103 1140 1231 1396 1526 1373 1177 1093 1024 1073 1143 857 536 280 98 46 53 81
0 0 0 0 0 0 0 0 0 1 677 757 851 473 74 112 60 17 38 135 399 590 582 542 622 707 782 990 1004 976 925 889 904 962 1077 1143 925 877 961 913 961 930 629 427 243 122 73 72 62
0 0 0 0 0 0 0 0 0 37 139 710 363 333 347 56 15 0 1 6 179 413 523 554 509 546 547 580 669 682 705 716 724 748 835 822 694 673 737 690 758 693 747 511 379 229 99 49 20
0 0 0 0 0 0 0 0 0 0 590 435 569 260 184 17 0 0 0 0 7 133 299 355 488 417 284 282 420 431 478 531 573 633 659 553 282 369 420 313 314 540 493 453 337 167 61 8 0
0 0 0 0 0 0 0 0 0 34 386 659 730 219 98 63 50 26 1 0 0 9 45 256 370 332 151 317 210 105 224 289 296 363 334 86 28 28 125 111 137 271 235 196 168 137 68 28 0
0 0 0 0 0 0 0 0 0 0 0 331 734 188 247 153 129 116 49 4 0 0 15 77 204 148 129 174 23 6 52 43 99 187 105 5 2 0 8 0 5 3 113 11 47 8 1 0 0
0 0 0 0 0 0 0 0 0 0 0 0 440 174 401 372 263 254 174 65 0 0 0 3 26 46 25 7 0 0 4 0 16 48 19 0 0 0 0 0 0 0 0 0 0 0 0 0 0
0 0 0 0 0 0 0 0 0 0 0 0 403 228 394 644 606 506 428 241 72 0 0 0 0 4 0 0 0 0 0 6 0 6 0 0 0 0 0 2 0 0 0 0 0 0 0 4 70
0 0 0 0 0 0 0 0 0 0 0 0 561 314 325 608 775 958 1009 683 399 91 5 0 0 0 0 0 0 0 0 0 0 0 0 0 0 0 24 5 0 0 0 0 0 206 154 101 12
0 0 0 0 0 0 0 0 0 0 0 76 765 647 377 476 664 764 1106 996 747 445 170 22 0 0 0 0 0 0 0 0 0 0 0 23 32 41 90 80 50 0 0 10 85 136 1 0 0
0 0 0 0 0 0 0 0 0 0 0 0 113 611 710 552 588 694 724 1082 1009 920 650 276 78 14 1 0 0 0 5 1 1 20 30 120 245 268 213 223 281 296 208 212 193 0 0 0 0
0 0 0 0 0 0 0 0 0 0 0 0 0 21 437 752 772 739 723 750 1011 1070 1063 776 397 142 67 47 59 34 39 42 50 87 162 235 303 416 270 166 184 257 210 0 0 0 0 0 0
0 0 0 0 0 0 0 0 0 0 0 0 0 0 0 240 685 833 857 819 814 1109 1154 1178 825 576 302 305 325 354 338 316 307 297 260 262 403 250 141 62 39 17 0 0 0 0 0 0 0
0 0 0 0 0 0 0 0 0 0 0 0 0 0 0 0 12 349 742 881 791 797 1124 1214 1161 1057 774 662 748 713 694 636 560 452 312 269 324 234 171 53 0 0 0 0 0 0 0 0 0
0 0 0 0 0 0 0 0 0 0 0 0 0 0 0 0 0 0 74 409 535 571 864 980 1189 1181 1077 935 896 821 796 747 737 423 304 326 274 239 168 0 0 0 0 0 0 0 0 0 0
0 0 0 0 0 0 0 0 0 0 0 0 0 0 0 0 0 0 0 0 4 304 526 848 1058 1153 1292 1148 897 402 253 150 303 424 491 320 250 191 62 0 0 0 0 0 0 0 0 0 0
0 0 0 0 0 0 0 0 0 0 0 0 0 0 0 0 0 0 0 0 0 2 388 626 973 1034 1300 1201 960 831 948 844 767 818 625 363 188 71 0 0 0 0 0 0 0 0 0 0 0
0 0 0 0 0 0 0 0 0 0 0 0 0 0 0 0 0 0 0 0 0 0 102 470 775 903 1055 1122 1057 771 831 799 698 560 364 161 0 0 0 0 0 0 0 0 0 0 0 0 0
0 0 0 0 0 0 0 0 0 0 0 0 0 0 0 0 0 0 0 0 0 0 15 411 604 730 708 889 975 801 730 673 371 417 109 82 0 0 0 0 0 0 0 0 0 0 0 0 0
0 0 0 0 0 0 0 0 0 0 0 0 0 0 0 0 0 0 0 0 0 0 151 456 622 685 581 563 648 748 734 566 287 271 151 29 0 0 0 0 0 0 0 0 0 0 0 0 0
0 0 0 0 0 0 0 0 0 0 0 0 0 0 0 0 0 0 0 0 0 0 65 476 654 718 657 569 544 556 576 462 188 120 89 0 0 0 0 0 0 0 0 0 0 0 0 0 0
0 0 0 0 0 1 0 0 0 0 0 0 0 0 0 0 0 0 0 0 0 0 0 71 514 645 694 710 611 547 494 423 147 58 5 0 0 0 0 0 0 0 0 0 0 0 0 0 0
0 0 0 3 1 2 0 0 0 0 0 0 0 0 0 0 0 0 0 0 0 0 0 0 278 604 746 814 741 693 576 381 91 0 0 0 0 0 0 0 0 0 0 0 0 0 0 0 0
0 0 5 19 11 19 3 0 0 0 0 0 0 0 0 0 0 0 0 0 0 0 0 0 6 739 824 954 985 845 665 168 21 0 0 0 0 0 0 0 0 0 0 0 0 0 0 0 0
0 0 0 31 0 0 6 0 0 0 0 0 0 0 0 0 0 0 0 0 0 0 0 0 6 831 1031 1154 1120 937 265 43 0 0 0 0 0 0 0 0 0 0 0 0 0 0 0 0 0
CIN
0 0 0 0 0 0 0 0 0 0 0 0 0 0 0 -376 -259 -201 -679 -710 -544 -390 -298 -220 -250 -289 -260 -218 -184 -147 -94 -87 -79 -62 -50 -54 -60 -65 -57 -43 -43 -39 -85 -97 -126 -140 -212 -407 0
0 0 0 0 0 0 0 0 0 0 -56 -62 -132 -279 -252 -310 -584 -756 -653 -582 -486 -396 -321 -261 -280 -308 -269 -217 -176 -139 -114 -93 -74 -78 -87 -110 -96 -84 -82 -76 -51 -55 -97 -99 -111 -128 -233 -533 -544
0 0 0 0 0 0 0 0 0 -135 -263 -207 -216 -317 -341 -394 -685 -721 -738 -582 -455 -399 -329 -307 -308 -327 -281 -201 -143 -138 -111 -96 -93 -90 -105 -113 -111 -91 -101 -73 -53 -59 -97 -97 -120 -193 -495 -617 -517
0 0 0 0 0 0 0 0 0 -202 -191 -218 -237 -261 -392 -560 -623 -712 -698 -530 -455 -390 -325 -352 -351 -342 -287 -179 -109 -111 -134 -127 -132 -126 -92 -105 -112 -103 -85 -69 -67 -74 -139 -170 -267 -476 -635 -652 -586
0 0 0 0 0 0 0 0 0 0 -32 -160 -214 -246 -345 -570 -755 -799 -694 -575 -491 -420 -382 -381 -372 -361 -287 -148 -103 -129 -154 -158 -157 -157 -127 -93 -101 -104 -86 -77 -58 -67 -116 -228 -351 -511 -630 -642 -588
0 0 0 0 0 0 0 0 0 0 -181 -154 -216 -278 -425 -715 -738 -811 -732 -668 -533 -451 -414 -397 -359 -348 -307 -185 -168 -186 -197 -194 -204 -187 -161 -121 -121 -133 -114 -117 -105 -83 -114 -185 -331 -510 -575 -571 -554
0 0 0 0 0 0 0 0 0 -47 -134 -148 -222 -282 -591 -652 -750 -809 -827 -755 -598 -480 -443 -416 -363 -342 -314 -264 -262 -253 -244 -236 -239 -238 -217 -191 -211 -204 -170 -154 -119 -109 -162 -244 -360 -483 -538 -546 -561
0 0 0 0 0 0 0 0 0 -25 -121 -211 -292 -191 -306 -623 -622 0 -517 -717 -645 -513 -439 -409 -406 -388 -389 -371 -351 -336 -312 -295 -282 -271 -249 -249 -268 -256 -222 -215 -177 -174 -146 -214 -268 -371 -493 -567 -626
0 0 0 0 0 0 0 0 0 -18 -121 -160 -190 -289 -390 -722 0 0 0 0 -546 -603 -513 -478 -422 -453 -500 -485 -422 -405 -374 -345 -325 -294 -277 -292 -374 -329 -300 -325 -324 -213 -216 -232 -284 -413 -520 -620 -157
0 0 0 0 0 0 0 0 0 -19 -106 -124 -177 -373 -594 -679 -720 -728 -143 0 0 -288 -665 -528 -483 -492 -570 -450 -491 -551 -463 -419 -409 -374 -370 -477 -552 -566 -422 -440 -425 -323 -351 -376 -396 -419 -483 -555 0
0 0 0 0 0 0 0 0 0 0 0 -109 -124 -409 -578 -618 -635 -626 -632 -634 0 0 -741 -654 -554 -564 -553 -516 -623 -647 -551 -555 -510 -447 -483 -617 -349 -68 -595 0 -76 -81 -426 -598 -523 -600 -72 0 0
0 0 0 0 0 0 0 0 0 0 0 0 -253 -370 -512 -528 -577 -602 -582 -646 0 0 0 -644 -654 -637 -634 -605 0 0 -611 0 -584 -539 -582 0 0 0 0 0 0 0 0 0 0 0 0 0 0
0 0 0 0 0 0 0 0 0 0 0 0 -327 -355 -405 -436 -450 -488 -530 -591 -672 0 0 0 0 -209 0 0 0 0 0 -607 0 -610 0 0 0 0 0 -442 0 0 0 0 0 0 0 -323 -342
0 0 0 0 0 0 0 0 0 0 0 0 -266 -315 -353 -358 -412 -393 -426 -512 -591 -677 -528 0 0 0 0 0 0 0 0 0 0 0 0 0 0 0 -472 -376 0 0 0 0 0 -243 -259 -294 -133
0 0 0 0 0 0 0 0 0 0 0 -273 -212 -259 -292 -339 -356 -415 -456 -467 -532 -601 -640 -802 0 0 0 0 0 0 0 0 0 0 0 -498 -482 -464 -382 -375 -386 0 0 -374 -297 -242 -25 0 0
0 0 0 0 0 0 0 0 0 0 0 0 -204 -248 -247 -291 -329 -352 -420 -435 -470 -457 -558 -642 -710 -843 -157 0 0 0 -717 -107 -117 -570 -508 -424 -341 -305 -297 -277 -225 -223 -258 -221 -209 0 0 0 0
0 0 0 0 0 0 0 0 0 0 0 0 0 -47 -254 -251 -264 -291 -356 -431 -448 -477 -471 -525 -609 -733 -752 -685 -601 -586 -570 -573 -545 -488 -449 -391 -329 -261 -285 -306 -271 -231 -248 0 0 0 0 0 0
0 0 0 0 0 0 0 0 0 0 0 0 0 0 0 -276 -263 -289 -326 -385 -437 -465 -463 -450 -499 -560 -617 -527 -469 -430 -415 -415 -416 -414 -410 -372 -299 -323 -339 -363 -350 -384 0 0 0 0 0 0 0
0 0 0 0 0 0 0 0 0 0 0 0 0 0 0 0 -43 -338 -291 -333 -377 -457 -450 -471 -441 -464 -464 -445 -396 -385 -398 -361 -345 -350 -387 -382 -321 -323 -314 -361 0 0 0 0 0 0 0 0 0
0 0 0 0 0 0 0 0 0 0 0 0 0 0 0 0 0 0 -418 -358 -369 -421 -514 -504 -479 -424 -439 -440 -448 -382 -359 -355 -329 -366 -385 -346 -342 -324 -337 0 0 0 0 0 0 0 0 0 0
0 0 0 0 0 0 0 0 0 0 0 0 0 0 0 0 0 0 0 0 -343 -375 -513 -547 -536 -502 -446 -401 -385 -459 -455 -517 -424 -402 -357 -379 -354 -333 -376 0 0 0 0 0 0 0 0 0 0
0 0 0 0 0 0 0 0 0 0 0 0 0 0 0 0 0 0 0 0 0 -42 -346 -530 -531 -532 -468 -407 -392 -393 -376 -372 -434 -350 -348 -374 -370 -387 0 0 0 0 0 0 0 0 0 0 0
0 0 0 0 0 0 0 0 0 0 0 0 0 0 0 0 0 0 0 0 0 0 -434 -550 -590 -554 -495 -456 -424 -439 -369 -379 -354 -338 -386 -428 0 0 0 0 0 0 0 0 0 0 0 0 0
0 0 0 0 0 0 0 0 0 0 0 0 0 0 0 0 0 0 0 0 0 0 -510 -521 -544 -601 -617 -531 -456 -472 -448 -378 -416 -384 -517 -473 0 0 0 0 0 0 0 0 0 0 0 0 0
0 0 0 0 0 0 0 0 0 0 0 0 0 0 0 0 0 0 0 0 0 0 -611 -552 -557 -576 -614 -581 -539 -514 -478 -420 -466 -430 -436 -387 0 0 0 0 0 0 0 0 0 0 0 0 0
0 0 0 0 0 0 0 0 0 0 0 0 0 0 0 0 0 0 0 0 0 0 -517 -530 -530 -541 -558 -577 -589 -559 -496 -463 -533 -518 -442 0 0 0 0 0 0 0 0 0 0 0 0 0 0
0 0 0 0 0 -2 0 0 0 0 0 0 0 0 0 0 0 0 0 0 0 0 0 -584 -480 -518 -573 -627 -572 -521 -537 -505 -596 -592 -482 0 0 0 0 0 0 0 0 0 0 0 0 0 0
0 0 0 -10 -1 -3 0 0 0 0 0 0 0 0 0 0 0 0 0 0 0 0 0 0 -484 -492 -588 -576 -537 -490 -519 -544 -626 0 0 0 0 0 0 0 0 0 0 0 0 0 0 0 0
0 -2 -15 -5 -11 -6 -4 0 0 0 0 0 0 0 0 0 0 0 0 0 0 0 0 0 -51 -455 -491 -492 -467 -428 -407 -638 -439 0 0 0 0 0 0 0 0 0 0 0 0 0 0 0 0
0 0 0 0 -2 0 -3 -1 0 0 0 0 0 0 0 0 0 0 0 0 0 0 0 0 -173 -419 -463 -486 -422 -373 -515 -800 -30 0 0 0 0 0 0 0 0 0 0 0 0 0 0 0 0
Wind_Speed
4 1 1 5 5 6 3 6 4 3 4 4 8 5 8 1 4 5 2 6 17 15 17 13 16 18 18 18 16 15 15 16 15 13 12 12 12 13 12 11 10 11 12 12 11 12 12 11 11
2 3 4 3 6 3 6 4 5 7 4 8 5 2 2 1 3 6 8 8 16 14 15 12 16 18 18 18 16 15 15 15 14 13 12 12 12 12 11 10 9 9 11 11 10 9 9 9 9
2 3 4 5 3 2 4 3 5 2 10 9 5 1 1 4 2 9 7 14 13 12 14 12 15 17 17 17 16 14 14 14 14 13 12 11 11 11 11 9 7 8 10 9 8 7 6 7 6
2 5 5 5 3 7 6 4 3 6 5 3 5 4 1 4 7 8 15 15 13 12 9 13 15 16 16 17 15 14 13 13 13 13 13 11 10 10 8 7 7 7 7 7 7 6 5 5 6
4 3 4 3 5 7 6 8 10 9 4 6 5 5 3 4 8 16 17 14 14 9 8 11 13 16 16 16 15 13 12 12 12 14 14 12 10 9 8 7 7 6 6 5 5 3 2 4 6
4 4 5 1 5 7 7 5 7 7 3 3 3 4 2 3 11 12 14 12 11 12 10 10 13 14 15 15 14 13 12 11 11 11 12 12 11 10 7 6 7 7 6 4 3 1 2 5 6
6 4 4 3 4 7 5 8 3 4 8 4 5 4 2 2 6 12 9 9 9 9 11 8 8 11 13 13 13 13 12 11 10 10 11 11 10 10 9 8 7 6 5 4 3 0 3 5 6
5 5 1 4 3 6 5 8 4 2 3 4 6 6 6 6 9 9 9 7 8 8 10 12 8 7 7 8 12 13 13 12 11 10 9 9 9 9 9 8 7 7 7 5 3 2 3 5 6
3 5 2 4 3 6 3 7 8 2 6 2 3 7 4 20 14 11 8 4 5 5 10 12 12 9 8 7 9 12 13 12 10 8 8 6 4 5 6 6 7 7 6 5 4 3 3 6 5
5 4 8 5 2 5 8 2 3 3 3 2 4 6 15 18 17 16 15 13 11 11 8 11 12 11 9 7 7 6 7 6 5 5 6 4 4 4 4 5 6 8 7 6 4 4 4 5 3
4 6 5 6 7 7 6 6 2 6 3 5 5 15 16 15 12 12 13 15 16 12 9 10 11 9 10 8 6 4 4 4 4 6 5 5 4 3 3 2 2 3 5 3 3 2 2 4 3
2 6 4 4 2 6 5 4 4 5 5 4 11 20 16 17 16 17 14 13 12 11 11 9 9 11 10 5 7 6 5 4 5 6 6 5 3 4 4 3 4 4 3 4 3 2 3 4 5
4 4 4 6 8 5 6 8 4 5 8 1 9 16 18 15 15 13 11 10 12 14 12 12 10 10 10 9 7 6 7 6 7 6 6 5 4 5 4 4 4 3 3 4 4 3 3 3 3
3 4 7 5 7 5 4 5 2 6 6 5 13 17 16 19 20 11 11 14 15 14 17 15 16 14 12 11 11 9 7 7 6 6 6 8 5 4 4 4 4 4 4 4 4 3 2 2 3
5 8 5 4 4 5 4 6 9 7 5 8 11 15 15 19 14 19 21 18 19 18 17 20 20 18 17 17 13 11 9 9 8 7 8 9 8 6 6 4 4 5 4 5 4 3 3 4 4
4 1 5 4 1 4 7 10 10 8 4 7 11 9 14 18 21 20 16 19 18 16 21 19 17 20 18 16 12 10 11 10 9 9 7 10 10 8 6 5 5 5 5 4 3 4 4 4 4
5 4 5 9 6 4 7 5 5 6 4 9 7 10 14 16 17 17 17 19 19 20 19 19 18 20 20 16 11 10 10 10 9 8 8 11 11 10 8 6 5 6 5 4 4 2 3 3 3
7 6 5 8 3 3 10 10 8 10 5 9 11 9 13 17 22 23 23 20 19 19 18 17 15 17 17 11 10 8 8 9 8 9 9 10 9 10 9 6 6 5 4 4 3 4 2 3 3
4 5 8 3 1 5 6 10 10 9 12 7 11 13 10 17 23 21 22 20 18 14 16 18 18 18 13 12 13 12 14 10 9 8 10 11 10 11 11 7 7 6 7 7 6 4 4 2 1
6 8 17 8 5 3 12 20 17 8 12 10 12 13 13 6 10 16 20 21 20 19 19 17 20 18 17 14 14 10 10 8 9 7 9 11 12 12 11 10 9 9 7 7 6 5 4 3 1
11 14 16 10 6 7 4 19 20 15 7 10 8 11 9 11 13 9 13 19 22 21 18 20 22 22 20 18 11 4 4 3 5 9 10 11 13 14 12 11 10 10 9 9 7 6 7 5 1
12 4 11 10 2 10 4 10 21 8 9 7 11 8 11 12 9 9 8 10 18 23 22 21 21 22 20 20 17 21 15 15 14 10 8 9 12 12 11 12 12 12 7 9 7 6 5 6 5
9 2 7 6 9 7 14 5 21 2 10 8 9 11 9 10 10 11 10 9 14 15 18 21 21 19 19 21 21 17 17 13 9 9 11 11 8 11 11 11 12 11 8 7 9 7 7 4 5
7 3 4 6 4 8 20 8 28 14 12 5 5 10 11 12 10 10 10 8 7 10 12 10 13 18 20 21 23 24 23 17 11 13 10 10 8 8 10 12 12 11 10 10 8 6 7 5 5
6 1 3 5 7 13 13 9 27 5 9 8 10 10 10 10 10 11 10 8 8 8 12 13 16 19 21 22 23 23 23 20 17 15 13 14 10 8 12 12 11 9 10 9 9 8 6 6 5
5 6 6 6 4 12 6 12 27 20 17 13 9 9 13 15 13 9 9 8 9 9 12 15 17 21 19 20 24 21 21 14 13 15 11 11 12 11 10 10 10 10 11 10 9 6 5 6 5
3 3 3 5 9 9 7 10 17 17 11 9 10 15 18 19 20 16 14 13 12 11 10 16 19 22 21 25 20 21 19 19 17 16 13 10 9 8 12 13 11 11 12 12 11 8 7 6 5
3 3 3 1 5 5 8 8 15 13 14 16 13 16 18 16 17 14 13 12 10 12 13 13 20 24 25 22 20 18 20 18 16 14 15 14 12 14 15 14 13 12 10 10 10 8 7 8 4
5 3 4 2 2 3 5 6 9 5 8 13 16 15 16 18 19 18 17 18 18 15 14 16 18 22 20 19 19 19 17 17 15 15 16 16 13 15 16 15 15 14 13 12 10 10 11 10 8
2 3 3 3 4 3 5 12 8 5 18 17 15 18 19 18 16 18 20 17 13 16 18 17 16 19 20 19 18 18 15 16 15 16 16 15 15 15 16 16 17 16 12 10 12 11 10 11 9
Wind_Direction
305 329 149 40 44 61 271 275 276 13 113 201 128 154 201 118 175 211 81 132 129 144 158 158 150 142 139 133 133 133 131 128 122 116 110 110 113 113 115 114 116 115 114 108 103 97 89 85 80
310 122 41 79 77 39 284 253 258 225 157 111 112 89 236 199 115 115 114 142 136 143 153 157 150 146 143 138 138 140 141 136 130 125 123 122 122 122 121 121 119 120 118 117 113 102 89 83 78
236 60 79 87 101 209 269 257 2 315 151 125 132 97 224 181 66 156 122 135 130 138 153 155 149 149 144 140 140 145 143 142 135 133 132 129 128 130 131 128 119 126 124 121 113 100 82 72 61
103 13 37 80 249 256 224 273 40 358 335 323 149 112 54 229 163 150 133 136 128 139 145 148 148 147 144 142 145 146 148 147 144 140 139 137 140 137 136 134 130 125 120 115 106 87 59 44 37
42 57 55 27 277 262 247 252 166 201 220 184 170 162 79 8 98 130 138 141 135 130 135 151 151 146 146 147 148 148 152 156 156 152 146 146 149 146 145 146 144 133 123 115 104 91 51 22 20
43 100 53 305 258 276 279 252 165 183 129 151 109 87 58 119 130 147 141 138 135 142 141 153 155 147 148 151 149 150 157 166 165 160 151 152 154 150 154 158 158 152 136 129 116 71 5 3 5
117 88 197 245 263 308 278 306 109 168 149 175 154 89 20 207 150 140 128 117 122 133 141 147 153 150 150 152 151 155 161 171 174 169 162 158 159 161 163 168 165 160 156 154 155 252 342 348 349
108 96 192 251 270 279 284 336 42 128 190 103 145 168 193 187 150 114 102 109 123 135 151 158 146 150 154 164 158 162 168 175 179 178 172 167 169 174 181 183 186 181 177 184 185 236 293 315 327
111 61 215 239 241 280 326 0 347 339 127 119 175 159 193 139 132 120 112 92 129 151 163 165 166 160 157 161 172 170 174 178 179 179 177 167 173 187 194 195 201 199 201 207 214 239 288 305 315
108 139 223 218 258 319 301 348 316 61 331 343 75 63 120 143 155 157 166 171 175 176 179 174 171 171 161 169 169 172 179 180 180 176 175 170 186 198 201 209 207 210 209 216 230 253 284 312 319
171 193 234 271 272 260 269 304 142 117 235 231 199 147 146 156 167 173 179 180 184 185 175 179 172 170 170 173 167 177 179 176 182 183 179 177 178 204 217 223 231 218 224 226 212 246 264 284 294
299 238 220 280 323 312 263 294 307 153 223 253 178 164 155 171 181 181 185 185 174 178 187 180 180 170 179 169 176 178 181 187 189 194 180 174 185 198 208 208 214 210 211 233 224 225 231 259 279
234 255 230 271 285 251 294 268 226 233 237 180 149 164 173 181 192 194 186 183 182 183 183 182 180 186 179 175 180 184 193 191 199 194 187 179 188 204 197 211 197 206 197 206 218 223 224 239 264
269 277 282 262 267 252 246 268 297 256 168 141 164 183 185 188 194 181 183 190 190 187 191 181 185 188 186 187 185 188 192 195 198 200 195 193 189 204 201 214 205 202 198 206 216 213 171 148 83
283 308 320 262 237 237 179 288 233 249 121 171 195 192 195 206 188 196 193 194 192 198 188 191 189 186 191 194 188 188 192 192 200 205 195 192 197 194 201 208 209 214 196 208 191 131 94 91 86
345 4 333 286 104 254 159 258 268 274 229 239 209 209 209 211 205 207 200 203 201 196 198 194 189 192 195 200 197 195 192 194 199 201 197 196 194 195 189 205 215 199 174 174 148 133 109 101 104
360 256 268 300 229 239 202 244 269 316 181 269 206 210 212 220 223 222 212 206 200 203 199 198 195 195 196 196 192 199 200 202 203 203 199 195 196 193 188 189 198 167 160 150 152 115 134 123 110
198 225 255 249 314 342 296 271 279 289 270 256 277 211 222 221 220 215 216 210 208 203 201 203 198 196 193 188 190 194 201 207 203 204 205 196 192 186 186 181 170 158 138 134 130 133 79 124 137
190 230 248 240 343 356 277 297 284 286 288 264 273 277 207 225 232 222 218 218 215 205 202 199 194 198 183 187 191 196 205 200 207 206 198 198 193 189 187 178 163 155 161 167 152 121 121 78 129
231 247 261 289 248 247 300 287 282 265 268 248 245 266 265 223 225 231 226 216 212 206 202 198 200 193 195 193 197 201 198 207 202 196 202 202 192 189 185 172 172 167 146 155 161 150 127 108 117
228 230 257 264 336 263 282 282 284 269 256 281 245 244 272 257 265 233 208 220 208 212 199 199 199 197 197 196 185 136 121 110 179 200 202 201 190 187 185 173 166 168 161 170 170 165 149 144 137
245 192 254 276 291 271 143 279 279 290 258 251 281 256 257 273 264 257 227 198 214 217 213 206 202 199 197 188 188 189 197 200 208 201 196 189 187 187 178 172 168 170 165 163 167 162 156 131 158
261 328 275 262 257 288 254 250 272 212 260 256 259 275 269 261 270 272 246 221 208 234 219 207 202 200 196 195 194 192 201 208 194 194 188 185 179 180 176 175 168 168 164 161 157 155 154 150 142
306 309 308 260 62 281 265 206 279 248 261 236 259 272 269 288 285 286 285 289 217 215 220 214 214 210 197 195 197 196 199 196 187 186 181 187 182 181 181 176 178 175 158 161 157 148 150 146 128
208 217 293 234 182 232 236 258 254 236 278 266 280 287 299 291 291 289 286 294 282 217 214 205 200 208 204 201 200 200 199 195 191 184 189 178 178 190 190 178 173 176 156 152 144 143 144 146 141
197 187 187 228 206 265 186 210 245 261 272 293 299 284 295 307 306 288 294 280 260 232 218 210 208 216 205 203 208 202 197 195 191 188 190 194 188 181 167 169 167 171 155 150 142 135 134 144 140
302 251 244 267 267 273 254 286 294 284 298 308 304 307 297 295 296 293 314 316 309 305 251 221 214 219 207 204 202 203 194 190 189 178 188 191 181 168 174 164 166 168 161 153 146 142 134 131 126
194 222 321 292 298 240 246 226 249 288 298 302 332 331 323 320 316 305 301 302 297 297 291 246 226 218 210 205 199 201 198 184 180 171 174 180 172 169 168 167 169 164 157 146 137 132 126 121 114
343 349 342 306 218 239 276 259 242 314 34 349 323 311 305 306 308 303 297 295 291 296 294 275 235 220 210 200 199 197 197 183 172 175 178 180 176 175 175 171 163 162 158 154 139 135 131 124 121
155 221 182 196 305 276 273 267 272 25 343 333 310 297 301 303 308 304 302 302 294 296 301 284 242 215 205 196 192 193 186 180 175 180 181 177 179 179 176 172 165 159 148 145 135 135 131 127 122